| time (UTC) | temp C | wind direction | speed KPH | gust KPH | rain 1hr cm | rain 24hr cm | rain mn cm | humidity % | barometer mb |
| 20260503032419 | 5 | 247 | 0.0 | 0.0 | 0.00 | 0.00 | 0.00 | 90 | 989.5 |
| 20260503031839 | 5 | 273 | 0.0 | 0.0 | 0.00 | 0.00 | 0.00 | 90 | 989.5 |
| 20260503031244 | 5 | 273 | 0.0 | 0.0 | 0.00 | 0.00 | 0.00 | 89 | 989.1 |
| 20260503030642 | 6 | 84 | 0.0 | 1.6 | 0.00 | 0.00 | 0.00 | 88 | 989.5 |
| 20260503030024 | 6 | 230 | 1.6 | 3.2 | 0.00 | 0.00 | 0.00 | 88 | 989.1 |
| 20260503025424 | 6 | 291 | 0.0 | 1.6 | 0.00 | 0.00 | 0.00 | 88 | 989.1 |
| 20260503024829 | 6 | 245 | 0.0 | 1.6 | 0.00 | 0.00 | 0.00 | 87 | 989.1 |
| 20260503024233 | 6 | 75 | 0.0 | 1.6 | 0.00 | 0.00 | 0.00 | 86 | 989.1 |
| 20260503023618 | 7 | 244 | 0.0 | 1.6 | 0.00 | 0.00 | 0.00 | 85 | 989.1 |
| 20260503023036 | 7 | 170 | 1.6 | 1.6 | 0.00 | 0.00 | 0.00 | 85 | 989.1 |
| 20260503022451 | 7 | 190 | 1.6 | 1.6 | 0.00 | 0.00 | 0.00 | 85 | 989.1 |
| 20260503021851 | 7 | 214 | 0.0 | 1.6 | 0.00 | 0.00 | 0.00 | 84 | 989.1 |
| 20260503021241 | 7 | 204 | 0.0 | 1.6 | 0.00 | 0.00 | 0.00 | 84 | 989.1 |
| 20260503020644 | 7 | 119 | 0.0 | 3.2 | 0.00 | 0.00 | 0.00 | 83 | 988.8 |
| 20260503020048 | 7 | 238 | 0.0 | 1.6 | 0.00 | 0.00 | 0.00 | 83 | 988.8 |
| 20260503014817 | 7 | 248 | 0.0 | 0.0 | 0.00 | 0.00 | 0.00 | 82 | 989.1 |
| 20260503014252 | 7 | 242 | 0.0 | 0.0 | 0.00 | 0.00 | 0.00 | 82 | 988.8 |
| 20260503013626 | 7 | 248 | 0.0 | 0.0 | 0.00 | 0.00 | 0.00 | 81 | 988.8 |
| 20260503013014 | 7 | 254 | 0.0 | 1.6 | 0.00 | 0.00 | 0.00 | 81 | 988.4 |
| 20260503011811 | 7 | 218 | 0.0 | 0.0 | 0.00 | 0.00 | 0.00 | 81 | 988.4 |
| 20260503011231 | 7 | 212 | 1.6 | 1.6 | 0.00 | 0.00 | 0.00 | 80 | 988.4 |
| 20260503010623 | 7 | 250 | 0.0 | 0.0 | 0.00 | 0.00 | 0.00 | 79 | 988.4 |
| 20260503010028 | 8 | 222 | 0.0 | 0.0 | 0.00 | 0.00 | 0.00 | 79 | 988.1 |
| 20260503005413 | 8 | 218 | 1.6 | 1.6 | 0.00 | 0.00 | 0.00 | 78 | 988.1 |
| 20260503004843 | 8 | 241 | 0.0 | 0.0 | 0.00 | 0.00 | 0.00 | 77 | 988.1 |
| 20260503004211 | 8 | 228 | 0.0 | 1.6 | 0.00 | 0.00 | 0.00 | 75 | 988.1 |
| 20260503003641 | 8 | 244 | 0.0 | 1.6 | 0.00 | 0.00 | 0.00 | 75 | 988.1 |
| 20260503003018 | 8 | 239 | 1.6 | 1.6 | 0.00 | 0.00 | 0.00 | 73 | 988.1 |
| 20260503001815 | 9 | 298 | 0.0 | 1.6 | 0.00 | 0.00 | 0.00 | 73 | 987.8 |
| 20260503001232 | 9 | 279 | 0.0 | 1.6 | 0.00 | 0.00 | 0.00 | 71 | 987.8 |
| 20260503000048 | 10 | 180 | 0.0 | 1.6 | 0.00 | 0.00 | 0.00 | 67 | 987.8 |
| 20260502235410 | 10 | 224 | 0.0 | 1.6 | 0.00 | 0.00 | 0.00 | 69 | 987.8 |
| 20260502234841 | 10 | 243 | 0.0 | 0.0 | 0.00 | 0.00 | 0.00 | 66 | 987.8 |
| 20260502234245 | 10 | 218 | 0.0 | 0.0 | 0.00 | 0.00 | 0.00 | 65 | 987.8 |
| 20260502233641 | 10 | 207 | 0.0 | 3.2 | 0.00 | 0.00 | 0.00 | 65 | 987.4 |
| 20260502232429 | 11 | 68 | 0.0 | 0.0 | 0.00 | 0.00 | 0.00 | 65 | 987.1 |
| 20260502231840 | 11 | 176 | 1.6 | 3.2 | 0.00 | 0.00 | 0.00 | 61 | 987.1 |
| 20260502231212 | 11 | 212 | 1.6 | 1.6 | 0.00 | 0.00 | 0.00 | 60 | 987.8 |
| 20260502230630 | 11 | 240 | 1.6 | 3.2 | 0.00 | 0.00 | 0.00 | 59 | 987.1 |
| 20260502230040 | 11 | 253 | 1.6 | 3.2 | 0.00 | 0.00 | 0.00 | 56 | 987.4 |
| 20260502225434 | 11 | 273 | 1.6 | 9.7 | 0.00 | 0.00 | 0.00 | 49 | 987.4 |
| 20260502224832 | 12 | 206 | 3.2 | 4.8 | 0.00 | 0.00 | 0.00 | 47 | 987.4 |
| 20260502224226 | 12 | 255 | 1.6 | 6.4 | 0.00 | 0.00 | 0.00 | 47 | 987.4 |
| 20260502223035 | 12 | 268 | 6.4 | 9.7 | 0.00 | 0.00 | 0.00 | 46 | 987.4 |
| 20260502222421 | 11 | 262 | 3.2 | 6.4 | 0.00 | 0.00 | 0.00 | 49 | 987.4 |
| 20260502221839 | 11 | 270 | 0.0 | 3.2 | 0.00 | 0.00 | 0.00 | 50 | 987.4 |
| 20260502221254 | 12 | 273 | 1.6 | 4.8 | 0.00 | 0.00 | 0.00 | 50 | 987.1 |
| 20260502220621 | 12 | 263 | 0.0 | 1.6 | 0.00 | 0.00 | 0.00 | 46 | 987.1 |
| 20260502220030 | 12 | 258 | 1.6 | 4.8 | 0.00 | 0.00 | 0.00 | 43 | 987.1 |
| 20260502215411 | 12 | 300 | 6.4 | 11.3 | 0.00 | 0.00 | 0.00 | 45 | 987.1 |
| 20260502214823 | 12 | 326 | 9.7 | 14.5 | 0.00 | 0.00 | 0.00 | 43 | 987.1 |
| 20260502213651 | 13 | 290 | 6.4 | 9.7 | 0.00 | 0.00 | 0.00 | 41 | 987.1 |
| 20260502213041 | 12 | 255 | 4.8 | 9.7 | 0.00 | 0.00 | 0.00 | 43 | 987.1 |
| 20260502212448 | 12 | 293 | 12.9 | 14.5 | 0.00 | 0.00 | 0.00 | 44 | 987.1 |
| 20260502211814 | 12 | 304 | 4.8 | 14.5 | 0.00 | 0.00 | 0.00 | 43 | 986.7 |
| 20260502211238 | 12 | 209 | 6.4 | 12.9 | 0.00 | 0.00 | 0.00 | 43 | 986.7 |
| 20260502210627 | 12 | 282 | 0.0 | 11.3 | 0.00 | 0.00 | 0.00 | 46 | 986.7 |
| 20260502210034 | 12 | 127 | 1.6 | 12.9 | 0.00 | 0.00 | 0.00 | 44 | 986.7 |
| 20260502205414 | 12 | 245 | 0.0 | 4.8 | 0.00 | 0.00 | 0.00 | 46 | 986.7 |
| 20260502204235 | 12 | 200 | 3.2 | 6.4 | 0.00 | 0.00 | 0.00 | 45 | 987.1 |
| 20260502203612 | 12 | 207 | 6.4 | 14.5 | 0.00 | 0.00 | 0.00 | 45 | 987.1 |
| 20260502203052 | 12 | 245 | 1.6 | 6.4 | 0.00 | 0.00 | 0.00 | 47 | 987.1 |
| 20260502202443 | 12 | 192 | 4.8 | 12.9 | 0.00 | 0.00 | 0.00 | 44 | 987.1 |
| 20260502201845 | 12 | 298 | 4.8 | 12.9 | 0.00 | 0.00 | 0.00 | 45 | 987.1 |
| 20260502201211 | 12 | 348 | 4.8 | 6.4 | 0.00 | 0.00 | 0.00 | 44 | 987.1 |
| 20260502200650 | 12 | 226 | 6.4 | 6.4 | 0.00 | 0.00 | 0.00 | 44 | 987.1 |
| 20260502200039 | 12 | 209 | 4.8 | 16.1 | 0.00 | 0.00 | 0.00 | 44 | 987.1 |
| 20260502195414 | 12 | 275 | 8.0 | 11.3 | 0.00 | 0.00 | 0.00 | 44 | 987.4 |
| 20260502194838 | 12 | 231 | 8.0 | 11.3 | 0.00 | 0.00 | 0.00 | 43 | 987.4 |
| 20260502194248 | 12 | 281 | 4.8 | 9.7 | 0.00 | 0.00 | 0.00 | 44 | 987.4 |
| 20260502193634 | 12 | 319 | 3.2 | 9.7 | 0.00 | 0.00 | 0.00 | 43 | 987.4 |
| 20260502193038 | 12 | 245 | 3.2 | 9.7 | 0.00 | 0.00 | 0.00 | 45 | 987.4 |
| 20260502192426 | 12 | 301 | 3.2 | 9.7 | 0.00 | 0.00 | 0.00 | 45 | 987.8 |
| 20260502191852 | 11 | 277 | 3.2 | 3.2 | 0.00 | 0.00 | 0.00 | 47 | 987.4 |
| 20260502190615 | 11 | 266 | 6.4 | 9.7 | 0.00 | 0.00 | 0.00 | 47 | 987.4 |
| 20260502190018 | 12 | 273 | 3.2 | 11.3 | 0.00 | 0.00 | 0.00 | 46 | 987.8 |
| 20260502185437 | 12 | 238 | 4.8 | 11.3 | 0.00 | 0.00 | 0.00 | 45 | 987.8 |
| 20260502184255 | 12 | 232 | 6.4 | 9.7 | 0.00 | 0.00 | 0.00 | 46 | 987.8 |
| 20260502183654 | 12 | 236 | 9.7 | 11.3 | 0.00 | 0.00 | 0.00 | 46 | 987.8 |
| 20260502183016 | 12 | 231 | 3.2 | 9.7 | 0.00 | 0.00 | 0.00 | 46 | 987.8 |
| 20260502182440 | 12 | 243 | 6.4 | 12.9 | 0.00 | 0.00 | 0.00 | 47 | 987.8 |
| 20260502181833 | 12 | 253 | 3.2 | 6.4 | 0.00 | 0.00 | 0.00 | 50 | 988.1 |
| 20260502181254 | 11 | 324 | 3.2 | 6.4 | 0.00 | 0.00 | 0.00 | 47 | 987.8 |
| 20260502180621 | 11 | 247 | 4.8 | 6.4 | 0.00 | 0.00 | 0.00 | 48 | 987.8 |
| 20260502164244 | 11 | 101 | 1.6 | 9.7 | 0.00 | 0.00 | 0.00 | 49 | 988.4 |
| 20260502163631 | 12 | 284 | 9.7 | 12.9 | 0.00 | 0.00 | 0.00 | 47 | 988.4 |
| 20260502163054 | 12 | 81 | 1.6 | 4.8 | 0.00 | 0.00 | 0.00 | 47 | 988.4 |
| 20260502162442 | 12 | 322 | 1.6 | 6.4 | 0.00 | 0.00 | 0.00 | 49 | 988.4 |
| 20260502161816 | 12 | 310 | 3.2 | 12.9 | 0.00 | 0.00 | 0.00 | 47 | 988.4 |
| 20260502161221 | 12 | 273 | 6.4 | 12.9 | 0.00 | 0.00 | 0.00 | 46 | 988.1 |
| 20260502160623 | 11 | 196 | 3.2 | 6.4 | 0.00 | 0.00 | 0.00 | 46 | 988.4 |
| 20260502151833 | 12 | 296 | 9.7 | 19.3 | 0.00 | 0.00 | 0.00 | 50 | 989.1 |
| 20260502151241 | 12 | 229 | 3.2 | 4.8 | 0.00 | 0.00 | 0.00 | 51 | 988.8 |
| 20260502150650 | 12 | 200 | 1.6 | 4.8 | 0.00 | 0.00 | 0.00 | 52 | 989.1 |
| 20260502130631 | 8 | 50 | 0.0 | 1.6 | 0.00 | 0.00 | 0.00 | 83 | 989.1 |
| 20260502123635 | 6 | 349 | 0.0 | 0.0 | 0.00 | 0.00 | 0.00 | 93 | 989.1 |
| 20260502122440 | 5 | 226 | 0.0 | 0.0 | 0.00 | 0.00 | 0.00 | 98 | 989.1 |
| 20260502121222 | 4 | 226 | 0.0 | 0.0 | 0.00 | 0.00 | 0.00 | 98 | 988.8 |
| 20260502120644 | 3 | 226 | 0.0 | 0.0 | 0.00 | 0.00 | 0.00 | 98 | 988.8 |
| 20260502115451 | 3 | 226 | 0.0 | 0.0 | 0.00 | 0.00 | 0.00 | 98 | 989.1 |
| 20260502114813 | 3 | 226 | 0.0 | 0.0 | 0.00 | 0.00 | 0.00 | 98 | 989.1 |
| 20260502114232 | 3 | 226 | 0.0 | 0.0 | 0.00 | 0.00 | 0.00 | 98 | 988.8 |
| 20260502113611 | 3 | 226 | 0.0 | 0.0 | 0.00 | 0.00 | 0.00 | 98 | 989.1 |
| 20260502113039 | 3 | 226 | 0.0 | 0.0 | 0.00 | 0.00 | 0.00 | 98 | 989.1 |
| 20260502112437 | 3 | 226 | 0.0 | 1.6 | 0.00 | 0.00 | 0.00 | 99 | 989.1 |
| 20260502111828 | 3 | 226 | 0.0 | 0.0 | 0.00 | 0.00 | 0.00 | 99 | 988.8 |
| 20260502111226 | 3 | 226 | 1.6 | 1.6 | 0.00 | 0.00 | 0.00 | 99 | 989.1 |
| 20260502110017 | 2 | 226 | 0.0 | 0.0 | 0.00 | 0.00 | 0.00 | 99 | 988.4 |
| 20260502105418 | 2 | 216 | 0.0 | 0.0 | 0.00 | 0.00 | 0.00 | 99 | 988.8 |
| 20260502104829 | 2 | 227 | 0.0 | 0.0 | 0.00 | 0.00 | 0.00 | 99 | 988.4 |
| 20260502104217 | 2 | 228 | 0.0 | 0.0 | 0.00 | 0.00 | 0.00 | 99 | 988.8 |
| 20260502103635 | 2 | 228 | 0.0 | 1.6 | 0.00 | 0.00 | 0.00 | 99 | 988.4 |
| 20260502103043 | 2 | 228 | 1.6 | 1.6 | 0.00 | 0.00 | 0.00 | 99 | 988.8 |
| 20260502102419 | 2 | 228 | 0.0 | 1.6 | 0.00 | 0.00 | 0.00 | 99 | 988.8 |
| 20260502101846 | 2 | 228 | 0.0 | 0.0 | 0.00 | 0.00 | 0.00 | 99 | 989.1 |
| 20260502100630 | 2 | 228 | 0.0 | 0.0 | 0.00 | 0.00 | 0.00 | 98 | 989.1 |
| 20260502091252 | 3 | 229 | 0.0 | 0.0 | 0.00 | 0.00 | 0.00 | 97 | 989.1 |
| 20260502090624 | 3 | 229 | 0.0 | 0.0 | 0.00 | 0.00 | 0.00 | 97 | 989.5 |
| 20260502071224 | 4 | 230 | 0.0 | 1.6 | 0.00 | 0.00 | 0.00 | 92 | 988.8 |
| 20260502070652 | 4 | 229 | 0.0 | 1.6 | 0.00 | 0.00 | 0.00 | 91 | 988.8 |
| 20260502070035 | 4 | 223 | 1.6 | 1.6 | 0.00 | 0.00 | 0.00 | 91 | 988.8 |
| 20260502063651 | 5 | 221 | 0.0 | 0.0 | 0.00 | 0.00 | 0.00 | 88 | 988.8 |
| 20260502063042 | 5 | 220 | 0.0 | 0.0 | 0.00 | 0.00 | 0.00 | 87 | 988.8 |
| 20260502061814 | 5 | 233 | 1.6 | 1.6 | 0.00 | 0.00 | 0.00 | 86 | 988.8 |
| 20260502061249 | 5 | 233 | 0.0 | 0.0 | 0.00 | 0.00 | 0.00 | 84 | 988.8 |
| 20260502060622 | 6 | 201 | 1.6 | 1.6 | 0.00 | 0.00 | 0.00 | 83 | 988.8 |
| 20260502060047 | 6 | 236 | 0.0 | 1.6 | 0.00 | 0.00 | 0.00 | 83 | 989.1 |
| 20260502055448 | 6 | 235 | 0.0 | 3.2 | 0.00 | 0.00 | 0.00 | 82 | 988.8 |
| 20260502054820 | 6 | 220 | 0.0 | 1.6 | 0.00 | 0.00 | 0.00 | 81 | 989.1 |
| 20260502054251 | 6 | 229 | 0.0 | 3.2 | 0.00 | 0.00 | 0.00 | 81 | 989.1 |
| 20260502053021 | 6 | 234 | 0.0 | 0.0 | 0.00 | 0.00 | 0.00 | 79 | 988.8 |
| 20260502052415 | 7 | 234 | 0.0 | 1.6 | 0.00 | 0.00 | 0.00 | 78 | 989.1 |
| 20260502051826 | 7 | 234 | 0.0 | 0.0 | 0.00 | 0.00 | 0.00 | 77 | 988.8 |
| 20260502051220 | 7 | 234 | 0.0 | 0.0 | 0.00 | 0.00 | 0.00 | 76 | 989.1 |
| 20260502050628 | 7 | 235 | 0.0 | 0.0 | 0.00 | 0.00 | 0.00 | 75 | 989.1 |
| 20260502050039 | 7 | 234 | 0.0 | 1.6 | 0.00 | 0.00 | 0.00 | 75 | 989.1 |
| 20260502045433 | 7 | 242 | 0.0 | 1.6 | 0.00 | 0.00 | 0.00 | 74 | 988.8 |
| 20260502044838 | 8 | 242 | 0.0 | 1.6 | 0.00 | 0.00 | 0.00 | 74 | 989.1 |
| 20260502043629 | 8 | 265 | 0.0 | 1.6 | 0.00 | 0.00 | 0.00 | 73 | 989.1 |
| 20260502043043 | 8 | 172 | 1.6 | 1.6 | 0.00 | 0.00 | 0.00 | 69 | 989.1 |
| 20260502042435 | 9 | 358 | 0.0 | 1.6 | 0.00 | 0.00 | 0.00 | 70 | 988.8 |
| 20260502041810 | 9 | 289 | 0.0 | 3.2 | 0.00 | 0.00 | 0.00 | 67 | 989.1 |
| 20260502041217 | 9 | 272 | 6.4 | 6.4 | 0.00 | 0.00 | 0.00 | 69 | 989.1 |
| 20260502040649 | 10 | 225 | 3.2 | 4.8 | 0.00 | 0.00 | 0.00 | 64 | 988.8 |
| 20260502040019 | 10 | 268 | 3.2 | 4.8 | 0.00 | 0.00 | 0.00 | 63 | 989.1 |
| 20260502035442 | 10 | 221 | 1.6 | 3.2 | 0.00 | 0.00 | 0.00 | 65 | 988.8 |
| 20260502034810 | 10 | 215 | 0.0 | 4.8 | 0.00 | 0.00 | 0.00 | 64 | 989.1 |
| 20260502034246 | 10 | 283 | 0.0 | 1.6 | 0.00 | 0.00 | 0.00 | 64 | 988.8 |
| 20260502033649 | 10 | 300 | 0.0 | 1.6 | 0.00 | 0.00 | 0.00 | 65 | 989.1 |